Temp
57 57 57 56 55 53 56 62 54 81 82 62 63 58 63 63 68 74 73 75 73 72 75 77 81 82 87 95 93 84 88 82 74 80 91 93 89 83 82 73 70 78 76 79
57 57 57 56 55 54 59 54 59 75 76 54 57 63 65 68 68 69 69 69 74 78 73 69 76 81 93 95 92 86 89 79 70 73 83 90 85 86 86 85 83 73 72 76
57 57 56 55 55 55 56 51 51 64 70 68 61 55 56 58 71 70 73 70 72 72 71 76 73 76 85 92 93 76 86 82 74 71 74 83 79 83 85 84 75 76 79 81
57 57 56 55 55 55 55 51 52 59 49 54 56 51 49 49 54 65 67 64 65 58 58 69 70 76 80 86 82 86 85 72 77 81 82 84 83 83 83 80 81 75 81 82
56 56 56 56 55 55 49 41 49 55 52 55 53 51 51 50 53 50 52 55 58 58 55 57 49 58 70 76 86 83 85 72 75 73 83 82 80 84 85 85 83 83 84 83
56 56 56 56 55 54 48 56 51 45 46 51 52 54 55 49 51 54 60 51 49 51 55 59 61 64 67 72 78 79 77 76 70 66 77 78 72 80 83 84 87 84 78 85
57 57 57 56 55 54 52 51 48 40 37 46 48 53 55 52 51 46 55 58 51 58 64 62 65 69 73 74 77 83 75 71 72 68 71 60 79 89 89 85 87 90 89 89
56 56 57 57 56 55 50 51 46 40 35 47 49 51 53 49 50 47 55 60 65 65 61 46 47 61 64 69 76 79 82 74 68 65 66 72 78 84 84 82 81 91 89 91
56 56 57 57 57 56 55 52 52 43 37 44 53 48 53 48 47 51 57 65 70 64 56 41 37 44 58 60 68 80 79 77 71 67 62 59 76 86 93 91 74 91 92 91
56 57 57 57 58 56 55 52 55 45 37 46 51 49 49 53 50 42 47 50 56 65 51 40 37 40 61 57 59 63 68 69 66 66 64 70 83 88 91 69 72 85 88 88
56 57 57 57 57 56 55 55 55 48 39 47 53 56 51 53 54 46 47 47 53 56 47 43 43 45 56 58 64 61 62 62 64 66 63 60 87 85 76 78 83 84 86 87
56 57 57 57 57 57 56 49 57 52 43 47 57 59 62 61 60 55 56 49 45 51 46 47 46 46 47 54 51 69 58 67 65 68 70 71 73 79 82 84 82 83 85 88
56 57 57 57 56 56 55 53 52 51 43 49 55 55 63 67 66 68 53 56 59 56 54 44 46 47 51 46 52 58 64 61 65 69 74 78 79 81 85 85 83 86 89 90
56 56 56 56 56 55 56 51 53 48 44 38 52 69 64 71 69 67 66 62 63 58 56 48 46 47 56 47 48 49 52 56 57 64 75 77 79 82 83 85 86 85 85 86
55 55 56 56 56 54 56 59 57 52 43 40 49 57 65 70 68 69 68 64 60 50 50 42 44 50 49 51 51 51 54 51 53 56 56 58 73 79 82 80 80 82 80 78
55 55 55 55 55 55 55 44 51 53 49 40 37 61 60 60 53 65 65 65 62 61 47 43 47 55 51 46 48 53 55 56 58 53 58 55 72 75 80 78 80 81 80 81
55 55 55 55 54 57 48 46 50 54 53 41 37 42 56 60 62 67 63 67 63 61 51 46 49 49 51 50 47 50 52 55 57 57 58 55 58 67 75 76 78 76 81 82
55 55 54 54 53 53 50 53 52 53 45 42 35 38 45 58 54 57 64 55 56 56 54 49 46 49 50 46 52 52 52 54 56 58 62 62 64 67 67 70 74 73 74 76
54 54 55 57 53 50 50 53 52 50 44 37 36 35 35 55 51 55 50 54 49 54 47 46 47 46 44 48 51 49 50 51 55 60 64 65 64 64 63 62 64 64 68 71
54 58 55 48 53 55 54 48 43 41 41 38 33 38 39 52 52 53 52 51 46 42 45 48 42 42 48 52 51 51 52 53 55 56 56 61 62 62 63 59 58 56 58 64
62 56 57 61 58 55 47 43 39 39 36 40 41 45 45 51 45 51 55 49 45 38 43 43 38 38 44 51 51 53 54 55 54 55 57 59 59 60 61 62 61 60 60 59
55 53 58 60 52 46 42 40 44 43 41 48 46 47 50 48 51 46 48 44 45 38 50 43 36 41 49 51 53 55 55 59 61 63 63 64 63 62 60 62 64 68 67 64
59 54 53 53 52 40 36 34 39 42 49 53 54 47 48 50 50 47 47 43 42 51 42 35 39 46 49 51 53 55 56 57 64 64 64 64 65 67 66 65 64 65 67 67
56 52 39 48 45 43 40 42 45 55 57 58 57 51 47 51 49 50 45 48 50 39 36 34 41 47 51 55 60 65 62 62 65 66 69 69 66 64 65 66 67 67 65 67
56 56 41 47 56 61 60 52 51 56 55 59 60 61 58 56 53 54 52 46 37 38 36 42 47 50 51 58 64 66 63 64 65 71 70 68 68 69 67 66 66 66 66 65
62 60 55 60 56 59 62 64 64 69 58 63 63 56 53 52 50 46 42 41 38 42 46 49 51 54 58 60 64 63 65 66 67 66 68 66 68 66 67 70 70 69 68 66
60 58 64 60 60 56 63 63 67 73 67 57 57 47 48 57 45 41 45 40 44 47 50 52 53 54 56 59 64 66 64 64 63 64 62 67 64 69 70 68 70 70 72 72
MSLP
1019.00 1018.61 1018.23 1017.89 1017.63 1017.17 1015.44 1013.26 1009.80 1005.55 1005.81 1005.72 1004.64 1003.22 1002.30 1001.92 1000.01 998.71 997.04 995.64 994.22 992.50 990.73 988.65 987.12 986.22 986.02 986.20 986.78 987.19 988.19 988.72 988.14 987.32 987.34 987.97 988.50 988.92 989.68 989.41 989.24 989.02 988.49 986.93
1018.64 1018.24 1017.91 1017.69 1017.57 1017.47 1016.18 1013.16 1009.58 1007.11 1005.73 1004.39 1003.89 1003.20 1001.83 1000.99 999.80 998.71 997.42 996.07 994.83 993.42 991.92 990.61 988.61 986.89 985.74 985.82 985.95 986.19 987.19 987.51 987.95 987.78 987.14 986.68 987.07 988.17 988.92 989.47 989.52 988.06 988.04 987.02
1018.30 1017.97 1017.73 1017.50 1017.41 1017.33 1016.82 1014.39 1009.64 1006.35 1004.82 1004.38 1003.86 1004.25 1002.98 1001.25 999.71 998.56 997.72 996.62 996.10 994.54 992.94 991.74 990.17 988.61 986.92 985.78 985.53 986.33 986.61 986.72 986.74 986.08 986.82 986.92 986.61 986.94 987.83 988.42 988.24 987.59 987.16 987.73
1017.83 1017.55 1017.37 1017.26 1017.13 1017.05 1016.83 1014.82 1010.96 1008.45 1007.31 1005.70 1005.52 1006.56 1006.14 1004.31 1001.99 1000.07 999.31 998.27 997.65 997.88 995.78 993.46 991.97 990.75 988.78 986.91 985.43 986.10 986.62 986.74 987.01 986.93 987.13 986.71 986.20 986.23 986.86 987.22 987.17 987.25 986.69 986.56
1017.40 1017.12 1016.72 1016.65 1016.56 1016.62 1016.47 1015.24 1012.65 1011.18 1009.53 1007.96 1006.42 1006.32 1005.80 1005.09 1003.90 1003.85 1001.80 1000.53 1000.09 999.89 999.10 998.47 996.97 994.75 991.00 988.06 986.27 986.24 986.98 986.92 987.85 987.07 986.65 986.52 985.94 985.64 985.25 985.80 986.57 986.57 986.67 986.20
1016.70 1016.43 1016.10 1015.95 1015.93 1016.32 1015.62 1014.55 1014.39 1013.80 1011.19 1009.06 1007.35 1005.72 1005.12 1005.75 1005.51 1004.64 1003.10 1003.12 1002.88 1001.67 1000.89 1000.58 999.13 997.04 993.80 990.87 987.39 986.44 986.93 987.35 987.93 987.20 987.00 986.54 985.80 984.23 984.69 985.09 985.53 986.13 986.14 985.77
1016.01 1015.69 1015.45 1015.25 1015.13 1015.46 1015.21 1014.88 1014.67 1014.22 1012.10 1010.27 1008.34 1006.70 1005.84 1005.69 1005.88 1005.80 1004.37 1003.15 1003.11 1002.58 1002.43 1001.03 998.42 995.70 992.64 990.48 987.99 986.57 986.44 987.34 987.98 987.73 987.59 985.83 983.75 984.73 984.83 984.80 984.76 985.25 985.60 985.88
1015.42 1015.13 1014.80 1014.60 1014.48 1014.57 1014.92 1014.73 1014.84 1014.44 1012.80 1010.95 1008.93 1007.76 1006.52 1006.89 1006.44 1005.99 1004.08 1002.76 1001.81 1002.44 1002.41 1001.98 999.00 994.93 992.79 990.35 988.54 986.91 986.50 987.18 987.99 987.74 986.94 986.14 985.23 984.56 984.43 984.58 984.65 984.85 985.20 985.66
1014.84 1014.59 1014.31 1014.05 1013.83 1013.83 1014.08 1014.04 1014.23 1014.22 1013.25 1010.63 1009.22 1008.55 1007.39 1006.60 1006.44 1005.05 1003.47 1002.42 1001.57 1002.32 1002.73 1003.58 1001.49 997.02 993.18 991.02 988.81 987.08 986.75 987.11 987.74 987.80 986.66 985.60 985.33 985.20 984.67 985.02 984.82 985.28 985.21 985.54
1014.36 1014.03 1013.74 1013.44 1013.17 1013.21 1013.49 1013.22 1013.39 1013.58 1012.99 1011.05 1010.06 1008.47 1007.27 1007.03 1006.55 1006.40 1005.52 1004.53 1002.77 1001.60 1002.31 1002.67 1002.08 999.79 994.50 991.55 989.49 988.21 987.33 987.18 987.34 987.58 986.98 986.44 985.49 985.17 985.68 985.73 986.72 986.60 986.33 986.33
1014.04 1013.65 1013.40 1013.15 1012.96 1012.99 1013.12 1012.33 1012.49 1012.88 1012.50 1010.64 1009.61 1008.45 1007.57 1006.86 1006.07 1005.59 1006.11 1005.13 1003.15 1001.90 1002.00 1002.31 1001.70 1000.16 996.01 993.85 991.60 990.04 989.17 988.76 988.20 988.22 987.52 986.99 986.05 986.14 986.27 987.26 987.54 987.60 987.74 987.56
1013.85 1013.46 1013.22 1013.04 1012.89 1012.72 1012.61 1012.25 1011.79 1012.04 1011.80 1010.44 1009.23 1008.13 1007.12 1006.15 1005.57 1005.74 1005.01 1004.87 1005.25 1003.90 1003.41 1002.69 1001.72 1000.06 998.53 996.17 993.95 992.82 992.07 990.55 989.83 988.74 988.09 987.99 988.77 988.85 987.95 987.69 987.98 988.17 988.47 988.08
1013.98 1013.59 1013.26 1012.96 1012.70 1012.49 1012.45 1011.98 1012.06 1011.92 1011.51 1009.76 1007.36 1005.51 1004.70 1004.57 1004.19 1004.66 1004.51 1003.95 1003.96 1003.99 1004.78 1004.60 1002.80 1001.21 999.98 998.17 996.35 994.51 993.43 993.64 992.28 990.43 989.23 988.16 988.59 988.90 989.15 988.67 988.51 988.71 988.58 988.22
1013.93 1013.41 1013.04 1012.73 1012.48 1012.31 1012.10 1011.84 1011.65 1011.84 1011.31 1009.68 1005.71 1003.51 1002.99 1002.44 1002.07 1002.64 1003.05 1003.36 1003.45 1003.80 1004.36 1004.44 1003.27 1001.71 1000.60 999.66 998.98 998.56 997.68 996.69 995.15 992.45 990.60 990.18 989.79 989.42 989.46 989.43 989.21 989.49 989.87 990.00
1013.67 1013.20 1012.85 1012.63 1012.30 1012.06 1011.77 1010.92 1010.67 1011.04 1011.49 1009.50 1006.36 1004.75 1002.12 1001.16 1001.14 1001.00 1001.65 1002.37 1002.91 1003.71 1004.33 1004.94 1003.69 1002.31 1001.81 1000.34 1000.31 999.36 999.14 998.75 997.68 995.33 994.40 994.67 991.15 990.87 990.41 990.72 990.61 990.98 991.43 991.94
1013.41 1012.91 1012.69 1012.45 1012.20 1011.89 1011.18 1010.58 1010.43 1010.51 1010.95 1010.08 1007.48 1003.10 1001.92 1001.21 1001.92 1000.80 1001.03 1001.78 1002.38 1002.78 1004.33 1004.94 1004.15 1002.79 1002.59 1001.88 1000.64 1000.21 999.95 999.67 999.13 998.38 996.64 995.46 992.60 991.99 991.89 992.12 992.08 992.19 992.49 992.73
1012.88 1012.43 1012.18 1011.92 1011.93 1011.60 1011.05 1010.66 1010.52 1010.62 1010.61 1010.23 1008.22 1005.24 1002.78 1001.88 1000.70 1000.25 1000.86 1001.20 1001.68 1002.41 1003.81 1004.31 1003.85 1003.24 1002.81 1001.33 1000.43 1000.49 999.53 999.32 999.03 998.76 998.24 999.13 996.05 994.87 994.46 993.74 993.83 994.02 994.14 993.96
1012.15 1011.66 1011.28 1011.07 1011.19 1010.99 1010.32 1009.66 1009.91 1010.15 1010.47 1010.56 1009.27 1006.74 1004.40 1002.53 1001.20 1000.66 1001.17 1001.79 1002.41 1002.57 1002.86 1003.63 1003.40 1002.65 1001.95 1001.38 1001.10 1000.91 1000.96 999.94 998.84 999.48 999.14 999.00 999.11 997.82 996.41 996.29 995.85 995.96 995.96 996.31
1011.09 1010.96 1010.58 1010.39 1010.39 1009.56 1009.18 1009.40 1009.79 1010.13 1010.79 1010.13 1009.40 1007.51 1005.31 1003.30 1002.29 1001.51 1001.86 1002.19 1002.18 1002.46 1002.93 1003.34 1003.38 1002.71 1002.27 1002.00 1001.56 1001.79 1001.38 1000.66 1000.11 999.54 999.06 999.37 999.31 999.12 998.78 998.19 998.39 998.47 998.29 998.31
1010.18 1009.73 1009.33 1008.71 1008.34 1008.92 1009.23 1009.57 1009.77 1010.09 1010.07 1009.91 1008.60 1007.75 1005.41 1003.84 1002.34 1001.47 1001.75 1002.09 1002.26 1002.70 1003.22 1003.51 1003.65 1003.31 1002.72 1002.13 1002.24 1002.41 1002.30 1001.59 1000.70 1000.03 999.77 999.43 999.06 999.08 999.21 1000.19 1000.05 1000.04 999.44 999.54
1009.01 1008.98 1007.85 1007.62 1007.91 1008.29 1008.47 1008.19 1008.39 1008.28 1008.11 1007.58 1006.66 1005.50 1004.03 1003.77 1002.97 1001.73 1001.79 1001.81 1002.16 1002.76 1003.17 1003.62 1004.30 1004.08 1003.75 1003.09 1002.87 1002.85 1002.48 1002.01 1001.64 1001.03 1000.51 1000.30 1000.67 1000.67 1000.57 1000.57 1000.71 1000.78 1001.20 1001.10
1010.87 1010.72 1009.11 1008.15 1007.45 1007.52 1007.74 1007.43 1006.91 1006.32 1005.57 1004.67 1003.93 1003.66 1002.88 1003.24 1002.93 1002.58 1002.28 1002.14 1002.44 1002.63 1003.00 1003.96 1005.17 1004.90 1003.94 1003.79 1003.62 1003.21 1002.63 1002.20 1001.80 1001.42 1001.12 1001.10 1001.20 1000.90 1001.08 1000.95 1001.17 1000.52 1001.26 1001.46
1009.81 1009.70 1008.15 1007.13 1007.27 1007.04 1006.96 1007.11 1006.42 1005.23 1004.13 1002.82 1002.31 1002.24 1002.64 1002.41 1002.44 1002.20 1001.87 1002.06 1002.34 1002.89 1003.98 1005.69 1005.92 1005.27 1004.65 1003.80 1002.85 1002.34 1002.30 1002.30 1001.49 1001.13 1001.10 1001.19 1001.14 1001.28 1001.34 1001.25 1001.46 1000.72 1000.61 1000.66
1009.02 1008.38 1007.83 1007.08 1006.43 1006.06 1005.85 1005.94 1005.20 1003.57 1002.43 1001.21 1000.40 1001.08 1001.18 1001.05 1001.31 1001.42 1001.57 1002.27 1002.79 1004.24 1005.50 1006.72 1006.33 1005.37 1004.38 1003.29 1001.69 1001.30 1001.30 1001.33 1001.01 1000.80 1000.54 1000.63 1000.64 1001.01 1001.19 1001.33 1001.34 1001.16 1001.28 1001.07
1008.34 1007.94 1007.98 1007.29 1006.08 1004.48 1003.62 1003.75 1003.56 1002.48 1002.18 1000.81 999.88 999.71 1000.08 1000.07 1000.25 1000.98 1001.65 1002.78 1004.58 1005.97 1006.64 1006.57 1005.95 1005.35 1004.71 1003.27 1002.36 1001.87 1001.69 1001.52 1001.41 1001.31 1001.39 1001.48 1001.36 1001.32 1001.26 1001.40 1001.53 1001.72 1001.63 1001.76
1007.79 1007.45 1007.21 1006.69 1006.12 1004.52 1003.55 1002.29 1001.14 999.80 1000.19 999.93 999.79 1000.23 1000.71 1001.37 1002.67 1003.37 1004.36 1005.11 1006.12 1006.60 1006.43 1006.19 1005.74 1004.93 1004.08 1003.30 1002.79 1002.52 1002.22 1001.91 1001.74 1001.70 1001.44 1001.45 1001.39 1001.48 1001.50 1001.63 1001.87 1002.02 1002.07 1002.20
1007.61 1007.50 1007.56 1006.97 1006.28 1005.30 1003.80 1002.79 1001.32 1000.57 1000.12 1000.17 1000.72 1002.27 1002.91 1003.37 1004.91 1005.74 1006.30 1007.05 1007.36 1006.83 1006.54 1006.20 1005.73 1005.29 1004.52 1003.89 1003.29 1003.06 1002.83 1002.82 1002.83 1002.50 1002.12 1002.29 1002.24 1001.91 1002.05 1002.19 1002.23 1002.39 1002.41 1002.41
Wind_Speed
17 17 17 16 13 15 19 10 10 7 6 11 10 18 27 26 31 32 31 30 30 31 30 28 29 31 26 21 28 29 27 18 20 26 26 29 30 29 29 19 22 17 19 15
17 17 16 14 10 10 9 9 13 16 17 16 15 22 30 29 29 28 31 32 31 28 30 28 29 29 24 25 26 26 22 22 17 24 26 25 30 28 26 27 23 20 19 16
18 17 15 13 9 6 7 6 8 11 12 18 20 15 20 26 25 28 29 24 23 31 30 28 28 28 30 27 30 8 17 20 28 19 19 19 24 29 29 27 20 20 20 19
20 18 15 12 9 5 6 5 8 16 11 14 9 9 14 22 28 21 22 17 20 16 16 26 28 30 31 31 14 11 15 16 19 28 31 27 27 29 28 28 26 23 22 21
21 20 18 14 9 5 5 3 9 11 16 22 22 14 20 18 26 21 26 17 19 20 19 14 19 30 26 24 21 20 19 18 16 24 27 30 29 27 27 30 29 29 26 25
20 19 19 17 11 8 4 4 7 6 10 18 18 16 13 14 20 13 16 11 14 19 19 22 26 27 29 31 26 17 20 16 16 20 22 24 28 30 24 23 25 23 24 22
19 19 18 16 14 12 5 4 3 4 9 14 16 21 21 14 16 18 24 23 12 13 18 24 21 22 25 25 26 22 18 19 13 16 18 28 14 23 24 25 21 22 21 18
19 18 17 16 14 12 7 6 3 2 5 15 18 22 15 15 17 24 24 21 13 5 9 11 14 14 19 22 26 25 17 14 15 16 18 17 25 18 21 21 22 17 20 20
17 16 16 17 15 12 7 7 6 3 4 11 22 16 21 13 14 15 16 17 13 4 6 3 5 8 17 20 24 20 23 15 14 16 22 26 15 22 21 15 15 19 20 18
15 16 17 15 13 9 7 5 8 4 4 9 17 16 14 13 10 6 15 13 12 9 6 7 5 10 19 17 17 15 14 14 17 14 15 18 12 15 11 13 2 7 8 5
14 12 11 9 7 8 7 6 7 6 5 11 17 21 21 17 15 10 4 8 5 8 5 6 6 10 11 13 11 12 8 9 12 14 16 14 6 8 11 5 8 7 7 6
13 11 7 8 9 10 7 6 6 6 5 8 19 22 23 24 19 14 14 7 7 5 4 3 4 6 5 6 12 18 18 15 12 12 10 9 10 13 6 3 3 5 5 6
12 11 11 11 11 9 6 6 5 4 3 10 16 17 23 25 27 20 15 11 8 7 3 1 4 6 3 2 7 12 15 17 9 14 13 5 14 15 5 3 6 1 6 6
13 12 10 10 7 6 7 5 4 1 4 5 13 13 12 14 17 23 22 18 17 3 1 3 4 4 5 3 7 7 3 11 13 11 10 10 8 11 9 8 10 11 14 12
13 13 12 11 10 10 9 7 7 6 3 5 12 24 25 15 12 16 20 15 15 4 1 1 4 2 5 3 3 6 5 4 5 6 17 17 13 10 14 15 15 15 15 17
15 15 13 12 11 9 5 3 4 2 3 4 5 12 13 7 14 14 13 11 11 8 4 1 4 4 3 4 3 3 6 14 9 9 7 18 2 19 19 18 15 16 16 15
18 17 16 14 9 7 4 5 0 6 6 2 6 7 7 14 9 10 5 11 7 3 3 5 3 3 4 4 3 8 12 14 6 9 9 7 19 15 15 18 17 17 16 16
20 17 14 13 10 10 7 4 4 2 2 2 4 6 7 2 6 8 4 4 3 6 3 2 3 2 4 3 4 6 6 6 12 13 15 15 10 14 20 19 17 18 16 15
24 19 11 5 5 3 2 10 7 3 1 2 2 4 4 7 3 2 3 3 6 2 1 2 3 2 1 6 5 10 8 4 6 11 14 14 12 12 14 17 19 17 15 11
24 7 5 4 2 15 12 4 3 3 4 4 4 3 5 3 5 5 3 2 3 2 3 2 3 2 5 11 9 7 6 9 8 12 15 14 18 16 17 13 9 10 14 15
3 3 3 6 12 2 2 3 3 3 3 5 5 7 1 2 5 3 3 2 3 2 2 2 4 5 7 7 7 4 5 8 9 11 9 12 11 9 9 8 9 9 10 8
7 7 8 4 2 3 2 3 4 4 4 3 3 3 2 2 2 1 2 1 1 3 1 4 3 6 10 6 3 7 7 9 7 8 10 10 9 7 5 6 7 6 3 6
5 5 4 2 1 3 4 7 4 5 4 4 4 2 1 2 3 4 2 4 5 3 5 4 2 5 8 9 7 6 6 8 6 6 5 2 2 4 7 8 6 7 7 5
3 6 8 9 7 4 5 6 5 6 7 9 7 6 6 6 6 3 3 2 5 5 5 3 4 9 12 13 6 8 10 8 7 8 12 14 11 8 8 6 5 9 8 8
4 5 7 6 9 13 7 8 4 2 8 10 9 3 5 6 4 5 4 6 7 6 3 2 4 8 9 4 10 12 11 9 8 11 11 9 8 10 9 8 7 8 9 8
1 3 11 11 13 14 16 15 13 13 5 1 3 6 5 9 7 8 10 5 6 3 1 3 3 4 8 8 10 9 8 9 9 7 8 7 8 7 6 7 7 6 5 6
4 8 10 10 11 10 12 11 12 10 11 12 6 8 8 6 7 5 6 4 1 3 3 3 6 5 5 6 7 8 9 10 14 10 7 15 8 6 6 5 2 5 5 5
Wind_Direction
315 313 312 313 317 324 296 299 273 263 196 238 237 249 254 257 267 278 279 274 261 271 279 276 256 227 231 221 207 216 212 225 240 245 216 210 218 215 231 235 222 238 258 248
315 315 316 312 313 324 313 290 284 274 279 259 255 267 265 266 267 260 263 267 269 264 260 270 273 275 250 211 236 214 208 214 226 239 245 218 211 222 221 239 248 240 236 241
305 306 308 312 305 312 297 289 292 288 244 247 255 309 310 308 286 252 258 286 292 265 263 257 264 268 274 271 218 113 207 223 218 233 231 234 219 214 221 232 230 237 245 232
298 295 296 298 294 285 279 268 282 320 313 302 289 301 299 301 298 297 302 295 286 343 301 256 256 256 267 272 211 192 221 233 250 218 246 230 236 218 218 227 241 243 238 238
305 293 292 289 289 252 257 273 308 335 304 298 300 276 270 261 284 3 325 263 291 313 295 340 321 321 284 259 246 201 217 231 245 255 225 240 248 229 229 218 225 242 247 248
305 298 284 282 272 205 260 244 271 279 294 292 292 291 301 308 311 291 289 47 324 303 321 318 305 292 281 279 262 217 197 224 221 239 241 238 237 240 235 235 222 229 240 250
303 302 293 284 271 226 243 276 270 265 279 278 279 303 293 306 315 300 289 295 265 283 314 311 301 282 270 271 269 254 214 197 226 237 234 233 250 229 237 254 240 224 240 251
306 302 296 288 275 250 245 256 228 263 273 280 295 287 331 322 311 280 262 282 288 302 291 344 319 257 255 250 248 247 225 184 219 235 236 243 244 229 234 230 249 243 225 221
301 303 292 290 278 261 245 249 223 187 251 253 269 308 299 294 299 305 315 300 287 182 228 136 282 291 248 227 229 240 217 193 220 208 230 227 230 229 237 238 257 244 248 244
309 308 305 301 292 266 244 253 232 192 257 273 275 276 295 305 297 292 308 311 308 230 204 191 235 265 271 226 220 223 215 199 218 228 228 242 247 254 178 212 169 22 14 8
321 320 316 326 327 290 264 267 226 214 226 275 268 275 287 281 278 276 315 301 253 271 227 184 198 259 262 254 246 255 259 226 222 225 225 221 213 173 205 41 106 62 11 15
333 328 325 315 313 310 279 277 268 234 231 275 300 273 268 261 265 275 270 231 278 318 314 333 300 249 310 321 257 238 232 250 260 251 244 131 79 346 58 127 82 38 331 326
339 335 330 321 315 309 259 283 283 282 275 278 253 255 251 241 239 240 260 269 251 243 128 287 269 256 283 288 296 314 308 19 291 232 251 148 157 176 140 69 117 146 5 350
331 321 315 316 324 325 289 259 267 212 276 273 291 284 295 285 277 211 226 242 264 106 48 323 289 289 7 344 339 318 359 321 343 291 156 110 114 128 139 140 111 87 55 51
320 313 307 304 292 283 288 276 256 218 228 287 303 304 272 249 297 224 204 216 227 231 25 6 277 342 341 344 282 258 4 348 331 317 330 310 131 110 94 90 81 94 90 68
313 305 304 301 302 308 305 288 41 179 188 301 298 322 307 314 227 239 176 209 225 237 115 233 267 248 239 255 244 262 326 316 270 313 29 21 144 94 79 76 75 91 82 78
304 302 293 287 287 286 277 289 271 312 302 278 290 293 310 327 311 166 164 196 204 221 153 208 261 256 220 263 284 340 5 303 202 94 60 67 4 46 72 76 69 63 67 69
307 304 287 268 266 267 262 210 215 107 111 229 280 285 304 45 246 136 148 164 159 216 240 125 240 246 243 258 346 335 332 350 96 160 135 127 111 67 59 51 68 62 52 62
307 311 289 261 217 230 207 119 140 83 263 268 227 284 292 322 326 20 60 205 201 143 159 263 296 311 16 299 78 72 38 38 96 104 94 94 93 84 61 53 53 47 34 45
306 279 198 255 154 117 130 143 170 166 181 199 249 225 251 225 225 195 88 220 195 155 201 134 14 320 306 88 83 97 101 68 61 85 89 84 72 64 64 64 60 38 22 350
214 267 254 3 153 195 235 258 216 156 243 204 220 240 233 215 237 279 24 34 112 147 141 85 20 348 357 35 39 23 63 97 83 95 99 85 74 56 59 54 101 94 65 344
327 301 287 270 215 225 270 277 272 257 335 306 287 319 195 198 285 340 183 337 120 49 48 62 43 310 356 353 239 207 191 162 139 111 100 93 93 86 31 17 28 71 125 199
236 230 248 325 345 321 1 352 326 319 268 256 308 242 117 246 195 210 220 34 52 138 48 50 300 271 295 318 319 218 222 260 198 179 176 66 144 139 109 76 19 18 50 72
327 325 333 359 337 314 145 260 256 265 259 287 282 296 177 185 176 109 46 75 48 55 46 1 284 306 315 317 319 107 151 167 131 80 83 99 82 89 70 66 85 54 19 42
347 358 0 333 313 339 29 211 264 211 305 305 331 35 26 16 32 20 53 56 53 43 343 257 281 282 273 5 46 48 45 47 52 72 90 96 85 89 85 93 57 45 35 28
325 332 17 359 354 352 3 349 2 338 137 286 357 21 19 38 28 19 18 43 30 46 113 304 312 359 45 43 52 35 35 50 47 54 58 66 74 75 65 80 93 75 66 52
48 12 16 355 352 338 357 347 351 8 18 28 39 35 20 20 37 28 10 42 42 301 4 89 63 40 72 65 49 44 43 47 36 7 4 68 339 40 89 101 89 88 114 136